Location: Moscow
(38.8570°N, 84.2291°W)
Time: 19:12:36
(UTC+00:00)

ATLAS 5 CENTAUR R/B - Pass Details

Date: 15 November 2025
Orbit: 373 x 1089 km, 63.3° (Epoch: 12 December)

Event Time Altitude Azimuth Distance (km) Brightness Sun altitude
Rises 23:27:01 0° 327° (NNW) 2,841 5.2 -12.6°
Reaches altitude 10° 23:29:04 10° 328° (NNW) 2,037 4.4 -13.0°
Maximum altitude 23:33:45 85° 57° (ENE) 754 1.9 -13.9°
Drops below altitude 10° 23:39:34 10° 146° (SSE) 2,517 4.5 -15.0°
Sets 23:42:20 0° 147° (SSE) 3,564 5.2 -15.5°
